Location: White Mills Observatory
(37.5374°N, 86.0303°W)
Time: 20:22:51
(UTC-04:00)

Hubble Space Telescope - Visible Passes

Search period start: 22 March 2017 00:00
Search period end: 01 April 2017 00:00
Orbit: 538 x 542 km, 28.5° (Epoch: 21 March)

Date Brightness Start Highest point End Pass type
(mag) Time Alt. Az. Time Alt. Az. Time Alt. Az.
25 Mar 2.9 07:11:14 10° SSW 07:13:59 17° SSE 07:16:45 10° SE visible
26 Mar 2.8 07:00:55 10° SW 07:03:53 19° S 07:06:52 10° ESE visible
27 Mar 2.6 06:50:40 10° SW 06:53:48 21° S 06:56:55 10° ESE visible
28 Mar 2.5 06:40:53 12° SW 06:43:43 22° S 06:46:56 10° ESE visible
29 Mar 2.4 06:31:23 15° SW 06:33:38 23° S 06:36:54 10° SE visible
30 Mar 2.3 06:21:53 18° SSW 06:23:32 23° S 06:26:50 10° SE visible
31 Mar 2.2 06:12:24 20° SSW 06:13:27 23° S 06:16:44 10° SE visible
